This is the latest recevied weather packets stored in our database for station/object HB9TJM-8. If no packets are shown the sender has not sent any weather packets the latest 10 day(s).
| Time | Temp. | Humidity | Pressure | Rain* | Wind** | Luminosity | Snow |
|---|---|---|---|---|---|---|---|
| 1777181526 | 12.22° C | 45% | 1020.1 hPa | 0 mm | - | 62 W/m² | - |
| 1777181219 | 11.67° C | 46% | 1020.2 hPa | 0 mm | - | 59 W/m² | - |
| 1777180911 | 11.67° C | 46% | 1020.1 hPa | 0 mm | - | 54 W/m² | - |
| 1777180604 | 11.67° C | 46% | 1020.2 hPa | 0 mm | - | 49 W/m² | - |
| 1777180297 | 11.11° C | 47% | 1020.1 hPa | 0 mm | - | 42 W/m² | - |
| 1777179990 | 11.11° C | 46% | 1020.4 hPa | 0 mm | - | 36 W/m² | - |
| 1777179682 | 10.56° C | 47% | 1020.3 hPa | 0 mm | - | 31 W/m² | - |
| 1777179375 | 11.11° C | 46% | 1020.2 hPa | 0 mm | - | 25 W/m² | - |
| 1777179068 | 10.56° C | 46% | 1020.4 hPa | 0 mm | - | 21 W/m² | - |
| 1777178761 | 10.56° C | 44% | 1019.8 hPa | 0 mm | - | 16 W/m² | - |
| 1777178453 | 10.56° C | 46% | 1019.8 hPa | 0 mm | - | 12 W/m² | - |
| 1777178145 | 10.56° C | 45% | 1020.1 hPa | 0 mm | - | 8 W/m² | - |
| 1777177838 | 11.11° C | 45% | 1020 hPa | 0 mm | - | 5 W/m² | - |
| 1777177531 | 11.11° C | 44% | 1020 hPa | 0 mm | - | 3 W/m² | - |
| 1777177223 | 11.11° C | 43% | 1020 hPa | 0 mm | - | 1 W/m² | - |
| 1777176915 | 11.11° C | 43% | 1019.9 hPa | 0 mm | - | 0 W/m² | - |
| 1777176608 | 11.67° C | 43% | 1020.3 hPa | 0 mm | - | 0 W/m² | - |
| 1777176301 | 11.67° C | 43% | 1019.8 hPa | 0 mm | - | 0 W/m² | - |
| 1777175993 | 11.11° C | 43% | 1019.7 hPa | 0 mm | - | 0 W/m² | - |
| 1777175685 | 11.67° C | 43% | 1020.1 hPa | 0 mm | - | 0 W/m² | - |
| 1777175378 | 11.67° C | 42% | 1019.6 hPa | 0 mm | - | 0 W/m² | - |
| 1777175070 | 11.67° C | 44% | 1019.5 hPa | 0 mm | - | 0 W/m² | - |
| 1777174763 | 11.67° C | 43% | 1019.7 hPa | 0 mm | - | 0 W/m² | - |
| 1777174763 | 11.67° C | 43% | 1019.7 hPa | 0 mm | - | 0 W/m² | - |
| 1777174456 | 11.67° C | 41% | 1019.9 hPa | 0 mm | - | 0 W/m² | - |
* Rain latest hour (hover to see other rain measurements)
** Current wind speed in m/s (hover to see current wind gust speed)